Powrót do katalogu

GLOBALSTAR M102

AktywnyŁącznośćLEO
NORAD 100326·PAYLOAD·🇺🇸 United States

Wystrzelony Aug 16, 2026 z Cape Canaveral Space Force Station

Loading…

Następne Przeloty (najbliższe 24 godziny)

TLE

ŚwieżeSource: Space-Track

Epoka: Sep 14, 2026, 14:36 UTC

1 A0326U 26185B   26257.60856851  .00000217  00000-0  78245-4 0  9994
2 A0326  51.9958 110.9123 0009675 329.0408  30.9977 14.63767242  4326

Śledź GLOBALSTAR M102 w czasie rzeczywistym z AllMySat

Download on the App Store